STARLINK-1260 (45404 NORAD) Tracking and Keplerian Element Data

This shows tracking and keplerian element data for the satellite.

Feedback or suggestion? Click here.




ElementValue
Catalog45404
NameSTARLINK-1260
Epoch Orbit1062
Epoch Day143.91667824
Epoch Year2020
RAAN294.0784
Inclination52.9997
Eccentricity0.0001407
Argument of Perigee12.8078
Mean Anonmoly37.9736
Mean Motion15.62725309
Decay Rate0.00037389
L11 45404U 20019AW 20143.91667824 .00037389 00000-0 41272-3 0 9991
L22 45404 52.9997 294.0784 0001407 12.8078 37.9736 15.62725309 10626

Live tracking and technical data element details for STARLINK-1260 (NORAD 45404). STARLINK-1260 can be tracked NOW for your location showing map with azimuth and elevation plus other details from your city location.

Track the satellite on the map from your city or location and see movement details for azimuth, elevation, latitude, longitude, range, height, and movement on the map or in text.







IsCatalogInMostPopularTable: catalog: 45404, numindb: 15
Update: records affected: 1



GetName: 45404 STARLINK-1260

Hit Count: updated at: Mon, 25 May 2020 07:07:49 GMT